• In Hungary
  • List of Countries
  • For 7 days
  • Water Temperature
  • Satellite Maps
  • Weather Map
  • News
  • Weather Widgets
  • user-avatar
    Login

    Hourly Weather Verhniy Voch

    Today, 19 July, Thursday

    Time Temperature Precipitation Wind Pressure Humidity
    00:00 +19°C° 0.1 mm 3 mps 748 mmHg 75%
    01:00 +18°C° 0.1 mm 3 mps 748 mmHg 79%
    02:00 +18°C° 0 mm 3 mps 749 mmHg 79%
    03:00 +17°C° 0 mm 3 mps 749 mmHg 79%
    04:00 +17°C° 0 mm 3 mps 749 mmHg 82%
    05:00 +18°C° 0 mm 3 mps 749 mmHg 77%
    06:00 +19°C° 0 mm 3 mps 749 mmHg 72%
    07:00 +20°C° 0 mm 3 mps 749 mmHg 66%
    08:00 +22°C° 0 mm 3 mps 749 mmHg 61%
    09:00 +25°C° 0 mm 3 mps 749 mmHg 55%
    10:00 +26°C° 0 mm 4 mps 750 mmHg 50%
    11:00 +27°C° 0.1 mm 3 mps 750 mmHg 49%
    12:00 +27°C° 0.1 mm 3 mps 750 mmHg 48%
    13:00 +28°C° 0.1 mm 3 mps 750 mmHg 48%
    14:00 +28°C° 0.1 mm 3 mps 750 mmHg 48%
    15:00 +28°C° 0.1 mm 3 mps 750 mmHg 48%
    16:00 +28°C° 0.1 mm 2 mps 750 mmHg 48%
    17:00 +27°C° 0 mm 2 mps 750 mmHg 52%
    18:00 +26°C° 0 mm 2 mps 750 mmHg 55%
    19:00 +26°C° 0 mm 2 mps 750 mmHg 59%
    20:00 +24°C° 0 mm 2 mps 750 mmHg 62%
    21:00 +23°C° 0 mm 2 mps 750 mmHg 65%
    22:00 +20°C° 0 mm 2 mps 750 mmHg 67%
    23:00 +19°C° 0 mm 2 mps 750 mmHg 69%

    Tomorrow, 20 July, Friday

    Time Temperature Precipitation Wind Pressure Humidity
    00:00 +19°C° 0 mm 2 mps 750 mmHg 71%
    01:00 +18°C° 0 mm 2 mps 751 mmHg 73%
    02:00 +17°C° 0 mm 2 mps 751 mmHg 77%
    03:00 +17°C° 0 mm 2 mps 751 mmHg 80%
    04:00 +16°C° 0 mm 2 mps 751 mmHg 84%
    05:00 +17°C° 0 mm 2 mps 752 mmHg 78%
    06:00 +19°C° 0 mm 2 mps 752 mmHg 73%
    07:00 +20°C° 0 mm 3 mps 752 mmHg 67%
    08:00 +22°C° 0 mm 3 mps 752 mmHg 60%
    09:00 +24°C° 0 mm 3 mps 752 mmHg 53%
    10:00 +26°C° 0 mm 4 mps 752 mmHg 46%
    11:00 +26°C° 0 mm 4 mps 752 mmHg 43%
    12:00 +27°C° 0 mm 4 mps 752 mmHg 41%
    13:00 +28°C° 0 mm 4 mps 752 mmHg 39%
    14:00 +28°C° 0 mm 4 mps 752 mmHg 38%
    15:00 +28°C° 0 mm 4 mps 752 mmHg 38%
    16:00 +28°C° 0 mm 4 mps 752 mmHg 38%
    17:00 +27°C° 0 mm 3 mps 752 mmHg 42%
    18:00 +27°C° 0 mm 3 mps 752 mmHg 46%
    19:00 +26°C° 0 mm 2 mps 752 mmHg 49%
    20:00 +24°C° 0 mm 2 mps 752 mmHg 55%
    21:00 +21°C° 0 mm 2 mps 753 mmHg 60%
    22:00 +19°C° 0 mm 2 mps 753 mmHg 66%
    23:00 +18°C° 0 mm 2 mps 753 mmHg 67%

    Day after tomorrow, 21 July, Saturday

    Time Temperature Precipitation Wind Pressure Humidity
    00:00 +17°C° 0 mm 2 mps 753 mmHg 69%
    01:00 +17°C° 0 mm 2 mps 754 mmHg 70%
    02:00 +16°C° 0 mm 2 mps 754 mmHg 73%
    03:00 +15°C° 0 mm 2 mps 754 mmHg 76%
    04:00 +14°C° 0 mm 2 mps 754 mmHg 79%
    05:00 +16°C° 0 mm 2 mps 755 mmHg 73%
    06:00 +17°C° 0 mm 3 mps 755 mmHg 67%
    07:00 +19°C° 0 mm 3 mps 755 mmHg 61%
    08:00 +20°C° 0 mm 3 mps 755 mmHg 55%
    09:00 +21°C° 0 mm 3 mps 755 mmHg 49%
    10:00 +23°C° 0 mm 4 mps 755 mmHg 43%
    11:00 +25°C° 0 mm 4 mps 755 mmHg 41%
    12:00 +25°C° 0 mm 4 mps 755 mmHg 38%
    13:00 +26°C° 0 mm 3 mps 754 mmHg 36%
    14:00 +27°C° 0 mm 3 mps 754 mmHg 35%
    15:00 +27°C° 0 mm 3 mps 754 mmHg 34%
    16:00 +27°C° 0 mm 3 mps 754 mmHg 34%
    17:00 +26°C° 0 mm 3 mps 754 mmHg 38%
    18:00 +26°C° 0 mm 2 mps 754 mmHg 42%
    19:00 +25°C° 0 mm 2 mps 754 mmHg 46%
    20:00 +23°C° 0 mm 2 mps 754 mmHg 53%
    21:00 +21°C° 0 mm 1 mps 754 mmHg 59%
    22:00 +18°C° 0 mm 1 mps 754 mmHg 65%
    23:00 +17°C° 0 mm 2 mps 754 mmHg 68%

    22 July, Sunday

    Time Temperature Precipitation Wind Pressure Humidity
    00:00 +16°C° 0 mm 2 mps 754 mmHg 71%
    01:00 +15°C° 0 mm 2 mps 755 mmHg 74%
    02:00 +14°C° 0 mm 2 mps 755 mmHg 75%
    03:00 +13°C° 0 mm 2 mps 755 mmHg 76%
    04:00 +13°C° 0 mm 2 mps 755 mmHg 77%
    05:00 +14°C° 0 mm 2 mps 755 mmHg 70%
    06:00 +16°C° 0 mm 2 mps 755 mmHg 64%
    07:00 +17°C° 0 mm 2 mps 756 mmHg 57%
    08:00 +19°C° 0 mm 2 mps 756 mmHg 50%
    09:00 +21°C° 0 mm 3 mps 755 mmHg 43%
    10:00 +22°C° 0 mm 3 mps 755 mmHg 37%
    11:00 +24°C° 0 mm 3 mps 755 mmHg 34%
    12:00 +25°C° 0 mm 3 mps 755 mmHg 32%
    13:00 +26°C° 0 mm 3 mps 754 mmHg 29%
    14:00 +26°C° 0 mm 3 mps 754 mmHg 29%
    15:00 +27°C° 0 mm 3 mps 754 mmHg 29%
    16:00 +27°C° 0 mm 3 mps 754 mmHg 29%
    17:00 +26°C° 0 mm 2 mps 753 mmHg 34%
    18:00 +26°C° 0 mm 2 mps 753 mmHg 39%
    19:00 +25°C° 0 mm 1 mps 753 mmHg 44%
    20:00 +22°C° 0 mm 1 mps 753 mmHg 49%
    21:00 +20°C° 0 mm 1 mps 753 mmHg 54%
    22:00 +15°C° 0 mm 0 mps 754 mmHg 60%
    23:00 +15°C° 0 mm 0 mps 754 mmHg 61%

    23 July, Monday

    Time Temperature Precipitation Wind Pressure Humidity
    00:00 +14°C° 0 mm 0 mps 754 mmHg 63%
    01:00 +13°C° 0 mm 0 mps 754 mmHg 65%
    02:00 +13°C° 0 mm 0 mps 754 mmHg 67%
    03:00 +13°C° 0 mm 0 mps 755 mmHg 68%
    04:00 +12°C° 0 mm 0 mps 755 mmHg 70%
    05:00 +14°C° 0 mm 0 mps 755 mmHg 65%
    06:00 +16°C° 0 mm 0 mps 755 mmHg 59%
    07:00 +18°C° 0 mm 0 mps 755 mmHg 54%
    08:00 +20°C° 0 mm 0 mps 755 mmHg 48%
    09:00 +25°C° 0 mm 1 mps 755 mmHg 43%
    10:00 +27°C° 0 mm 1 mps 755 mmHg 37%
    11:00 +27°C° 0 mm 1 mps 755 mmHg 34%
    12:00 +28°C° 0 mm 2 mps 754 mmHg 31%
    13:00 +29°C° 0 mm 2 mps 754 mmHg 28%
    14:00 +29°C° 0 mm 2 mps 754 mmHg 28%
    15:00 +29°C° 0 mm 2 mps 754 mmHg 28%
    16:00 +29°C° 0 mm 2 mps 753 mmHg 28%
    17:00 +28°C° 0 mm 2 mps 753 mmHg 33%
    18:00 +28°C° 0 mm 1 mps 753 mmHg 39%
    19:00 +27°C° 0 mm 1 mps 753 mmHg 44%
    20:00 +24°C° 0 mm 1 mps 753 mmHg 50%
    21:00 +22°C° 0 mm 1 mps 753 mmHg 55%
    22:00 +19°C° 0 mm 1 mps 753 mmHg 61%
    23:00 +19°C° 0 mm 1 mps 754 mmHg 63%

    24 July, Tuesday

    Time Temperature Precipitation Wind Pressure Humidity
    00:00 +18°C° 0 mm 1 mps 754 mmHg 65%
    01:00 +16°C° 0 mm 1 mps 754 mmHg 67%
    02:00 +16°C° 0 mm 1 mps 754 mmHg 68%
    03:00 +15°C° 0 mm 1 mps 755 mmHg 70%
    04:00 +14°C° 0 mm 0 mps 755 mmHg 71%
    05:00 +16°C° 0 mm 0 mps 755 mmHg 66%
    06:00 +18°C° 0 mm 0 mps 755 mmHg 60%
    07:00 +20°C° 0 mm 0 mps 755 mmHg 54%
    08:00 +22°C° 0 mm 0 mps 755 mmHg 48%
    09:00 +25°C° 0 mm 0 mps 755 mmHg 42%
    10:00 +27°C° 0 mm 0 mps 755 mmHg 35%
    11:00 +30°C° 0 mm 1 mps 755 mmHg 33%
    12:00 +31°C° 0 mm 1 mps 755 mmHg 31%
    13:00 +32°C° 0 mm 1 mps 755 mmHg 30%
    14:00 +32°C° 0 mm 1 mps 754 mmHg 29%
    15:00 +32°C° 0 mm 1 mps 754 mmHg 29%
    16:00 +32°C° 0 mm 1 mps 754 mmHg 29%
    17:00 +31°C° 0 mm 1 mps 754 mmHg 34%
    18:00 +28°C° 0 mm 0 mps 754 mmHg 39%
    19:00 +27°C° 0 mm 0 mps 754 mmHg 44%
    20:00 +24°C° 0 mm 0 mps 754 mmHg 49%
    21:00 +22°C° 0 mm 0 mps 754 mmHg 54%
    22:00 +19°C° 0 mm 0 mps 754 mmHg 58%
    23:00 +19°C° 0 mm 0 mps 754 mmHg 60%
    Show more